Date String (YYYY-MM-DD hh:mm:ss) UTC,Instrument flags,Ambient pressure (hPa),Sample flow (lpm),Bypass flow (lpm),Sample temperature (°C),Ambient temperature (°C),ASC tube jacket temperature (°C),LED temperature (°C),Box temperature (°C),Sample RH (%),Span deviation,Mass concentration (μg/m³),Mass concentration (μg/m³),Mass concentration (μg/m³)
DateTimeUTC,F1_M11,P_M11,Q1_M11,Q2_M11,T1_M11,T2_M11,T3_M11,T4_M11,T5_M11,U1_M11,ZSPAN_M11,X0_M11,X2_M11,X1_M11
2023-02-14 22:00:00,,0804.2,5.01,0.00,22.4,21.1,00.0,31.2,24.2,06.5,0000.0,0004.63,0002.28,0001.78
2023-02-14 22:01:00,,0804.2,5.00,0.00,22.4,21.0,00.0,31.2,24.2,06.6,0000.0,0004.64,0002.32,0001.79
2023-02-14 22:02:00,,0804.2,5.01,0.00,22.4,20.9,00.0,31.2,24.1,06.6,0000.0,0004.69,0002.34,0001.79
2023-02-14 22:03:00,,0804.3,5.00,0.00,22.4,20.8,00.0,31.2,24.1,06.6,0000.0,0004.89,0002.42,0001.79
2023-02-14 22:04:00,,0804.4,5.00,0.00,22.4,20.8,00.0,31.2,24.1,06.4,0000.0,0005.72,0002.49,0001.80
2023-02-14 22:05:00,,0804.4,5.00,0.00,22.3,20.7,00.0,31.2,24.1,06.5,0000.0,0006.96,0002.53,0001.81
2023-02-14 22:06:00,,0804.4,5.00,0.00,22.3,20.7,00.0,31.2,24.0,06.5,0000.0,0006.95,0002.51,0001.79
2023-02-14 22:07:00,,0804.5,4.99,0.00,22.3,20.7,00.0,31.2,24.0,06.5,0000.0,0006.78,0002.44,0001.78
2023-02-14 22:08:00,,0804.5,5.01,0.00,22.3,20.7,00.0,31.2,24.0,06.5,0000.0,0006.69,0002.41,0001.78
2023-02-14 22:09:00,,0804.6,5.01,0.00,22.3,20.6,00.0,31.2,24.0,06.4,0000.0,0006.41,0002.45,0001.78
2023-02-14 22:10:00,,0804.5,5.00,0.00,22.3,20.6,00.0,31.2,24.0,06.6,0000.0,0006.24,0002.45,0001.78
2023-02-14 22:11:00,,0804.4,5.00,0.00,22.2,20.5,00.0,31.2,24.0,06.4,0000.0,0005.84,0002.47,0001.76
2023-02-14 22:12:00,,0804.5,5.00,0.00,22.2,20.6,00.0,31.2,24.0,06.6,0000.0,0005.74,0002.43,0001.77
2023-02-14 22:13:00,,0804.4,5.00,0.00,22.2,20.6,00.0,31.1,24.0,06.6,0000.0,0005.66,0002.41,0001.79
2023-02-14 22:14:00,,0804.4,5.00,0.00,22.2,20.6,00.0,31.1,24.0,06.7,0000.0,0005.53,0002.37,0001.83
2023-02-14 22:15:00,,0804.4,5.00,0.00,22.2,20.5,00.0,31.1,23.9,06.6,0000.0,0004.97,0002.31,0001.85
2023-02-14 22:16:00,,0804.4,5.00,0.00,22.2,20.5,00.0,31.1,23.9,06.5,0000.0,0003.44,0002.29,0001.87
2023-02-14 22:17:00,,0804.6,5.01,0.00,22.2,20.5,00.0,31.1,23.9,06.5,0000.0,0003.62,0002.32,0001.89
2023-02-14 22:18:00,,0804.5,5.01,0.00,22.2,20.5,00.0,31.1,23.9,06.5,0000.0,0003.64,0002.33,0001.91
2023-02-14 22:19:00,,0804.6,5.00,0.00,22.1,20.5,00.0,31.1,23.9,06.5,0000.0,0003.71,0002.34,0001.93
2023-02-14 22:20:00,,0804.7,4.99,0.00,22.1,20.4,00.0,31.1,23.8,06.5,0000.0,0003.85,0002.32,0001.93
2023-02-14 22:21:00,,0804.7,5.00,0.00,22.1,20.5,00.0,31.0,23.8,06.5,0000.0,0003.77,0002.31,0001.93
2023-02-14 22:22:00,,0804.7,5.00,0.00,22.1,20.5,00.0,31.0,23.9,06.6,0000.0,0003.88,0002.31,0001.94
2023-02-14 22:23:00,,0804.6,5.01,0.00,22.1,20.5,00.0,31.0,23.9,06.7,0000.0,0004.02,0002.34,0001.95
2023-02-14 22:24:00,,0804.7,5.01,0.00,22.1,20.5,00.0,31.0,23.9,06.8,0000.0,0004.06,0002.35,0001.94
2023-02-14 22:25:00,,0804.7,4.98,0.00,22.1,20.5,00.0,31.0,23.9,06.6,0000.0,0004.12,0002.34,0001.92
2023-02-14 22:26:00,,0804.8,5.00,0.00,22.1,20.5,00.0,31.0,23.9,06.7,0000.0,0004.22,0002.37,0001.92
2023-02-14 22:27:00,,0804.7,5.01,0.00,22.0,20.4,00.0,31.0,23.8,06.6,0000.0,0005.38,0002.34,0001.90
2023-02-14 22:28:00,,0804.9,5.00,0.00,22.0,20.4,00.0,31.0,23.8,06.6,0000.0,0005.23,0002.33,0001.90
2023-02-14 22:29:00,,0804.9,4.99,0.00,22.0,20.4,00.0,31.0,23.8,06.4,0000.0,0005.20,0002.31,0001.89
2023-02-14 22:30:00,,0805.0,4.98,0.00,22.0,20.5,00.0,30.9,23.7,06.4,0000.0,0005.21,0002.31,0001.88
2023-02-14 22:31:00,,0805.0,5.01,0.00,22.1,21.3,00.0,30.9,24.0,06.4,0000.0,0005.14,0002.30,0001.88
2023-02-14 22:32:00,,0805.0,4.95,0.00,22.2,22.5,00.0,30.9,24.3,06.5,0000.0,0005.25,0002.34,0001.86
2023-02-14 22:33:00,,0805.0,4.98,0.00,22.3,23.0,00.0,30.9,24.5,06.7,0000.0,0005.04,0002.29,0001.86
2023-02-14 22:34:00,,0804.9,4.99,0.00,22.4,22.6,00.0,31.0,24.5,06.8,0000.0,0005.01,0002.25,0001.84
2023-02-14 22:35:00,,0804.9,5.00,0.00,22.4,22.2,00.0,31.1,24.4,06.9,0000.0,0005.19,0002.24,0001.84
2023-02-14 22:36:00,,0805.1,4.96,0.00,22.4,21.8,00.0,31.1,24.3,06.7,0000.0,0005.18,0002.21,0001.83
2023-02-14 22:37:00,,0805.2,5.00,0.00,22.4,21.5,00.0,31.1,24.3,06.7,0000.0,0005.20,0002.21,0001.84
2023-02-14 22:38:00,,0805.2,5.01,0.00,22.4,21.4,00.0,31.2,24.2,06.8,0000.0,0004.18,0002.24,0001.85
2023-02-14 22:39:00,,0805.2,4.99,0.00,22.4,21.2,00.0,31.2,24.2,06.7,0000.0,0004.23,0002.26,0001.86
2023-02-14 22:40:00,,0805.2,5.01,0.00,22.4,21.1,00.0,31.2,24.2,06.8,0000.0,0004.46,0002.34,0001.87
2023-02-14 22:41:00,,0805.2,5.01,0.00,22.4,21.1,00.0,31.2,24.2,06.8,0000.0,0004.44,0002.37,0001.87
2023-02-14 22:42:00,,0805.2,5.00,0.00,22.4,21.0,00.0,31.2,24.2,06.7,0000.0,0004.57,0002.40,0001.88
2023-02-14 22:43:00,,0805.2,4.99,0.00,22.4,20.9,00.0,31.2,24.1,06.8,0000.0,0004.55,0002.36,0001.89
2023-02-14 22:44:00,,0805.3,5.01,0.00,22.3,20.8,00.0,31.2,24.1,06.9,0000.0,0004.63,0002.38,0001.87
2023-02-14 22:45:00,,0805.2,5.00,0.00,22.3,20.8,00.0,31.2,24.1,06.8,0000.0,0004.89,0002.41,0001.86
2023-02-14 22:46:00,,0805.3,5.00,0.00,22.3,20.8,00.0,31.2,24.1,06.9,0000.0,0005.79,0002.41,0001.84
2023-02-14 22:47:00,,0805.3,5.00,0.00,22.3,20.8,00.0,31.2,24.1,06.9,0000.0,0005.72,0002.41,0001.82
2023-02-14 22:48:00,,0805.4,5.00,0.00,22.3,20.8,00.0,31.2,24.1,06.9,0000.0,0006.03,0002.39,0001.79
2023-02-14 22:49:00,,0805.4,5.00,0.00,22.3,20.8,00.0,31.2,24.1,06.9,0000.0,0006.04,0002.34,0001.77
2023-02-14 22:50:00,,0805.4,5.02,0.00,22.3,20.7,00.0,31.2,24.0,06.9,0000.0,0006.00,0002.34,0001.74
2023-02-14 22:51:00,,0805.4,5.00,0.00,22.3,20.7,00.0,31.2,24.1,07.1,0000.0,0005.82,0002.27,0001.72
2023-02-14 22:52:00,,0805.5,5.01,0.00,22.3,20.7,00.0,31.2,24.0,07.1,0000.0,0005.96,0002.28,0001.70
2023-02-14 22:53:00,,0805.5,5.00,0.00,22.2,20.7,00.0,31.2,24.0,07.0,0000.0,0005.87,0002.27,0001.68
2023-02-14 22:54:00,,0805.5,5.00,0.00,22.2,20.7,00.0,31.2,24.0,07.0,0000.0,0005.77,0002.31,0001.67
2023-02-14 22:55:00,,0805.6,5.00,0.00,22.2,20.6,00.0,31.2,24.0,07.0,0000.0,0006.17,0002.32,0001.66
2023-02-14 22:56:00,,0805.6,5.01,0.00,22.2,20.6,00.0,31.1,24.0,07.1,0000.0,0007.11,0002.25,0001.65
2023-02-14 22:57:00,,0805.6,5.00,0.00,22.2,20.6,00.0,31.1,24.0,06.9,0000.0,0006.09,0002.26,0001.65
2023-02-14 22:58:00,,0805.6,5.00,0.00,22.2,20.7,00.0,31.1,24.0,07.0,0000.0,0006.17,0002.23,0001.65
2023-02-14 22:59:00,,0805.7,5.00,0.00,22.2,20.7,00.0,31.1,24.0,07.0,0000.0,0006.62,0002.24,0001.64
